Time,TemperatureF,DewpointF,PressureIn,WindDirection,WindDirectionDegrees,WindSpeedMPH,WindSpeedGustMPH,Humidity,HourlyPrecipIn,Conditions,Clouds,dailyrainin,SoftwareType,DateUTC
2013-04-23 00:03:00,68.6,65.0,30.09,ESE,108,7.0,14.0,87,0.00,,,0.00,weatherlink.com 1.10,2013-04-23 04:03:00,
2013-04-23 00:18:00,68.5,65.0,30.09,ESE,105,7.0,13.0,87,0.00,,,0.00,weatherlink.com 1.10,2013-04-23 04:18:00,
2013-04-23 00:33:00,68.3,64.0,30.09,ESE,120,2.0,14.0,87,0.00,,,0.00,weatherlink.com 1.10,2013-04-23 04:33:00,
2013-04-23 00:48:00,68.0,64.0,30.09,NE,42,4.0,13.0,87,0.00,,,0.00,weatherlink.com 1.10,2013-04-23 04:48:00,
2013-04-23 01:03:00,67.7,64.0,30.09,ESE,123,10.0,13.0,88,0.00,,,0.00,weatherlink.com 1.10,2013-04-23 05:03:00,
2013-04-23 01:18:00,67.5,64.0,30.09,East,94,8.0,14.0,88,0.00,,,0.00,weatherlink.com 1.10,2013-04-23 05:18:00,
2013-04-23 01:33:00,67.6,64.0,30.08,ESE,102,5.0,12.0,89,0.00,,,0.00,weatherlink.com 1.10,2013-04-23 05:33:00,
2013-04-23 01:48:00,67.2,64.0,30.09,ENE,67,9.0,14.0,88,0.00,,,0.00,weatherlink.com 1.10,2013-04-23 05:48:00,
2013-04-23 02:03:00,67.4,64.0,30.08,ESE,120,3.0,17.0,89,0.00,,,0.00,weatherlink.com 1.10,2013-04-23 06:03:00,
2013-04-23 02:18:00,67.4,64.0,30.08,East,84,6.0,12.0,89,0.00,,,0.00,weatherlink.com 1.10,2013-04-23 06:18:00,
2013-04-23 02:33:00,67.4,64.0,30.07,ESE,108,9.0,12.0,89,0.00,,,0.00,weatherlink.com 1.10,2013-04-23 06:33:00,
2013-04-23 02:49:00,67.4,65.0,30.07,ENE,77,7.0,14.0,90,0.00,,,0.00,weatherlink.com 1.10,2013-04-23 06:49:00,
2013-04-23 03:04:00,67.5,65.0,30.06,NNW,343,10.0,16.0,90,0.00,,,0.00,weatherlink.com 1.10,2013-04-23 07:04:00,
2013-04-23 03:19:00,67.2,64.0,30.06,NE,38,5.0,12.0,90,0.00,,,0.00,weatherlink.com 1.10,2013-04-23 07:19:00,
2013-04-23 03:34:00,67.2,64.0,30.05,NW,321,3.0,8.0,90,0.00,,,0.00,weatherlink.com 1.10,2013-04-23 07:34:00,
2013-04-23 03:49:00,67.2,64.0,30.05,East,94,4.0,14.0,90,0.00,,,0.00,weatherlink.com 1.10,2013-04-23 07:49:00,
2013-04-23 04:04:00,67.3,64.0,30.05,East,88,5.0,12.0,90,0.00,,,0.00,weatherlink.com 1.10,2013-04-23 08:04:00,
2013-04-23 04:19:00,67.4,65.0,30.05,NW,311,3.0,10.0,90,0.00,,,0.00,weatherlink.com 1.10,2013-04-23 08:19:00,
2013-04-23 04:34:00,67.3,64.0,30.05,NW,314,2.0,10.0,90,0.00,,,0.00,weatherlink.com 1.10,2013-04-23 08:34:00,
2013-04-23 04:49:00,67.3,64.0,30.05,SE,146,3.0,12.0,90,0.00,,,0.00,weatherlink.com 1.10,2013-04-23 08:49:00,
2013-04-23 05:04:00,67.3,64.0,30.05,East,89,4.0,13.0,90,0.00,,,0.00,weatherlink.com 1.10,2013-04-23 09:04:00,
2013-04-23 05:19:00,67.3,64.0,30.05,West,270,3.0,13.0,90,0.00,,,0.00,weatherlink.com 1.10,2013-04-23 09:19:00,
2013-04-23 05:34:00,67.3,64.0,30.05,ENE,59,4.0,10.0,90,0.00,,,0.00,weatherlink.com 1.10,2013-04-23 09:34:00,
2013-04-23 05:49:00,67.4,65.0,30.05,North,6,5.0,10.0,90,0.00,,,0.00,weatherlink.com 1.10,2013-04-23 09:49:00,
2013-04-23 06:04:00,67.3,64.0,30.05,NNE,13,2.0,11.0,90,0.00,,,0.00,weatherlink.com 1.10,2013-04-23 10:04:00,
2013-04-23 06:19:00,67.3,65.0,30.05,North,5,5.0,10.0,91,0.00,,,0.00,weatherlink.com 1.10,2013-04-23 10:19:00,
2013-04-23 06:34:00,67.3,65.0,30.06,NNW,333,2.0,11.0,91,0.00,,,0.00,weatherlink.com 1.10,2013-04-23 10:34:00,
2013-04-23 06:49:00,67.1,65.0,30.07,East,89,8.0,9.0,91,0.00,,,0.00,weatherlink.com 1.10,2013-04-23 10:49:00,
2013-04-23 07:04:00,66.8,64.0,30.07,North,11,9.0,14.0,91,0.00,,,0.00,weatherlink.com 1.10,2013-04-23 11:04:00,
2013-04-23 07:19:00,66.6,64.0,30.08,North,360,7.0,12.0,91,0.00,,,0.00,weatherlink.com 1.10,2013-04-23 11:19:00,
2013-04-23 07:34:00,66.6,64.0,30.09,NE,34,12.0,12.0,90,0.00,,,0.00,weatherlink.com 1.10,2013-04-23 11:34:00,
2013-04-23 07:49:00,66.9,64.0,30.09,NW,309,4.0,11.0,91,0.00,,,0.00,weatherlink.com 1.10,2013-04-23 11:49:00,
2013-04-23 08:04:00,66.7,64.0,30.10,ENE,64,3.0,9.0,91,0.00,,,0.00,weatherlink.com 1.10,2013-04-23 12:04:00,
2013-04-23 08:19:00,66.9,64.0,30.10,NNE,19,3.0,10.0,91,0.00,,,0.00,weatherlink.com 1.10,2013-04-23 12:19:00,
2013-04-23 08:34:00,67.3,64.0,30.10,ENE,60,4.0,10.0,90,0.00,,,0.00,weatherlink.com 1.10,2013-04-23 12:34:00,
2013-04-23 08:49:00,67.6,64.0,30.11,NE,44,1.0,10.0,89,0.00,,,0.00,weatherlink.com 1.10,2013-04-23 12:49:00,
2013-04-23 09:04:00,67.7,64.0,30.11,NNE,14,13.0,13.0,88,0.00,,,0.00,weatherlink.com 1.10,2013-04-23 13:04:00,
2013-04-23 09:19:00,68.7,65.0,30.12,NNE,23,9.0,12.0,87,0.00,,,0.00,weatherlink.com 1.10,2013-04-23 13:19:00,
2013-04-23 09:34:00,69.3,65.0,30.12,NE,36,6.0,10.0,85,0.00,,,0.00,weatherlink.com 1.10,2013-04-23 13:34:00,
2013-04-23 09:49:00,70.5,66.0,30.12,ENE,70,2.0,13.0,84,0.00,,,0.00,weatherlink.com 1.10,2013-04-23 13:49:00,
2013-04-23 10:04:00,72.0,66.0,30.13,ENE,64,4.0,8.0,80,0.00,,,0.00,weatherlink.com 1.10,2013-04-23 14:04:00,
2013-04-23 10:19:00,72.6,65.0,30.13,North,354,8.0,8.0,78,0.00,,,0.00,weatherlink.com 1.10,2013-04-23 14:19:00,
2013-04-23 10:34:00,73.2,66.0,30.13,East,96,9.0,10.0,77,0.00,,,0.00,weatherlink.com 1.10,2013-04-23 14:34:00,
2013-04-23 10:49:00,74.1,66.0,30.13,WSW,252,1.0,10.0,76,0.00,,,0.00,weatherlink.com 1.10,2013-04-23 14:49:00,
2013-04-23 11:05:00,73.8,65.0,30.14,ESE,110,5.0,12.0,75,0.00,,,0.00,weatherlink.com 1.10,2013-04-23 15:05:00,
2013-04-23 11:20:00,75.1,66.0,30.14,ENE,76,1.0,13.0,72,0.00,,,0.00,weatherlink.com 1.10,2013-04-23 15:20:00,
2013-04-23 11:35:00,76.0,67.0,30.13,ESE,113,7.0,8.0,73,0.00,,,0.00,weatherlink.com 1.10,2013-04-23 15:35:00,
2013-04-23 11:50:00,75.5,66.0,30.13,East,99,6.0,10.0,72,0.00,,,0.00,weatherlink.com 1.10,2013-04-23 15:50:00,
2013-04-23 12:05:00,76.3,66.0,30.13,ENE,74,6.0,13.0,71,0.00,,,0.00,weatherlink.com 1.10,2013-04-23 16:05:00,
2013-04-23 12:20:00,77.2,67.0,30.12,ENE,57,6.0,10.0,70,0.00,,,0.00,weatherlink.com 1.10,2013-04-23 16:20:00,
2013-04-23 12:35:00,77.4,66.0,30.11,East,96,4.0,10.0,68,0.00,,,0.00,weatherlink.com 1.10,2013-04-23 16:35:00,
2013-04-23 12:50:00,77.4,66.0,30.11,East,97,2.0,10.0,69,0.00,,,0.00,weatherlink.com 1.10,2013-04-23 16:50:00,
2013-04-23 13:05:00,78.6,66.0,30.10,SE,128,7.0,12.0,66,0.00,,,0.00,weatherlink.com 1.10,2013-04-23 17:05:00,
2013-04-23 13:20:00,80.2,67.0,30.10,NE,38,7.0,9.0,65,0.00,,,0.00,weatherlink.com 1.10,2013-04-23 17:20:00,
2013-04-23 13:35:00,79.8,66.0,30.09,SE,126,6.0,9.0,63,0.00,,,0.00,weatherlink.com 1.10,2013-04-23 17:35:00,
2013-04-23 13:50:00,79.9,65.0,30.09,ENE,73,3.0,8.0,61,0.00,,,0.00,weatherlink.com 1.10,2013-04-23 17:50:00,
2013-04-23 14:05:00,81.1,65.0,30.08,East,88,1.0,6.0,59,0.00,,,0.00,weatherlink.com 1.10,2013-04-23 18:05:00,
2013-04-23 14:20:00,81.2,66.0,30.08,WNW,297,1.0,8.0,60,0.00,,,0.00,weatherlink.com 1.10,2013-04-23 18:20:00,
2013-04-23 14:35:00,81.2,65.0,30.08,NNW,334,2.0,5.0,58,0.00,,,0.00,weatherlink.com 1.10,2013-04-23 18:35:00,
2013-04-23 14:50:00,80.5,64.0,30.08,North,1,4.0,9.0,58,0.00,,,0.00,weatherlink.com 1.10,2013-04-23 18:50:00,
2013-04-23 15:05:00,79.0,68.0,30.07,NNW,340,11.0,15.0,69,0.00,,,0.00,weatherlink.com 1.10,2013-04-23 19:05:00,
2013-04-23 15:20:00,77.0,68.0,30.07,WNW,290,9.0,15.0,74,0.00,,,0.00,weatherlink.com 1.10,2013-04-23 19:20:00,
2013-04-23 15:35:00,76.6,69.0,30.07,WNW,286,10.0,15.0,77,0.00,,,0.00,weatherlink.com 1.10,2013-04-23 19:35:00,
2013-04-23 15:50:00,76.5,68.0,30.06,WNW,299,6.0,16.0,76,0.00,,,0.00,weatherlink.com 1.10,2013-04-23 19:50:00,
2013-04-23 16:05:00,76.6,68.0,30.06,WNW,291,10.0,15.0,74,0.00,,,0.00,weatherlink.com 1.10,2013-04-23 20:05:00,
2013-04-23 16:20:00,77.1,68.0,30.06,WNW,284,7.0,14.0,73,0.00,,,0.00,weatherlink.com 1.10,2013-04-23 20:20:00,
2013-04-23 16:35:00,77.4,67.0,30.05,WNW,285,9.0,14.0,71,0.00,,,0.00,weatherlink.com 1.10,2013-04-23 20:35:00,
2013-04-23 16:50:00,78.6,68.0,30.05,WNW,297,9.0,13.0,70,0.00,,,0.00,weatherlink.com 1.10,2013-04-23 20:50:00,
2013-04-23 17:05:00,78.0,69.0,30.05,NW,309,5.0,14.0,73,0.00,,,0.00,weatherlink.com 1.10,2013-04-23 21:05:00,
2013-04-23 17:20:00,78.3,68.0,30.05,NW,314,9.0,14.0,71,0.00,,,0.00,weatherlink.com 1.10,2013-04-23 21:20:00,
2013-04-23 17:35:00,77.7,68.0,30.05,West,281,11.0,16.0,72,0.00,,,0.00,weatherlink.com 1.10,2013-04-23 21:35:00,
2013-04-23 17:50:00,77.0,69.0,30.05,WNW,288,10.0,17.0,76,0.00,,,0.00,weatherlink.com 1.10,2013-04-23 21:50:00,
2013-04-23 18:05:00,77.0,69.0,30.05,NW,323,11.0,16.0,76,0.00,,,0.00,weatherlink.com 1.10,2013-04-23 22:05:00,
2013-04-23 18:20:00,77.0,69.0,30.05,WNW,285,6.0,15.0,75,0.00,,,0.00,weatherlink.com 1.10,2013-04-23 22:20:00,
2013-04-23 18:35:00,77.4,68.0,30.05,NW,321,10.0,15.0,73,0.00,,,0.00,weatherlink.com 1.10,2013-04-23 22:35:00,
2013-04-23 18:50:00,77.4,68.0,30.06,NW,314,10.0,14.0,73,0.00,,,0.00,weatherlink.com 1.10,2013-04-23 22:50:00,
2013-04-23 19:06:00,77.0,68.0,30.06,WNW,286,5.0,13.0,74,0.00,,,0.00,weatherlink.com 1.10,2013-04-23 23:06:00,
2013-04-23 19:20:00,76.7,68.0,30.06,NNW,334,8.0,12.0,74,0.00,,,0.00,weatherlink.com 1.10,2013-04-23 23:20:00,
2013-04-23 19:35:00,76.4,68.0,30.06,NNW,333,6.0,11.0,75,0.00,,,0.00,weatherlink.com 1.10,2013-04-23 23:35:00,
2013-04-23 19:50:00,75.8,67.0,30.07,NNW,338,5.0,12.0,75,0.00,,,0.00,weatherlink.com 1.10,2013-04-23 23:50:00,
2013-04-23 20:05:00,75.4,68.0,30.07,NNW,327,7.0,11.0,77,0.00,,,0.00,weatherlink.com 1.10,2013-04-24 00:05:00,
2013-04-23 20:20:00,75.1,68.0,30.07,NNW,338,9.0,11.0,78,0.00,,,0.00,weatherlink.com 1.10,2013-04-24 00:20:00,
2013-04-23 20:36:00,75.0,68.0,30.07,NNW,336,6.0,10.0,79,0.00,,,0.00,weatherlink.com 1.10,2013-04-24 00:36:00,
2013-04-23 20:51:00,75.0,68.0,30.07,NNW,346,3.0,7.0,80,0.00,,,0.00,weatherlink.com 1.10,2013-04-24 00:51:00,
2013-04-23 21:06:00,75.3,68.0,30.08,North,5,3.0,6.0,78,0.00,,,0.00,weatherlink.com 1.10,2013-04-24 01:06:00,
2013-04-23 21:21:00,76.4,64.0,30.09,ENE,68,10.0,10.0,65,0.00,,,0.00,weatherlink.com 1.10,2013-04-24 01:21:00,
2013-04-23 21:36:00,77.3,64.0,30.09,East,93,9.0,11.0,63,0.00,,,0.00,weatherlink.com 1.10,2013-04-24 01:36:00,
2013-04-23 21:51:00,76.9,63.0,30.10,SE,125,10.0,12.0,62,0.00,,,0.00,weatherlink.com 1.10,2013-04-24 01:51:00,
2013-04-23 22:06:00,76.4,62.0,30.11,ESE,107,8.0,15.0,62,0.00,,,0.00,weatherlink.com 1.10,2013-04-24 02:06:00,
2013-04-23 23:06:00,73.9,63.0,30.13,East,96,10.0,15.0,68,0.00,,,0.00,weatherlink.com 1.10,2013-04-24 03:06:00,
2013-04-23 23:21:00,73.3,63.0,30.13,ENE,70,14.0,15.0,69,0.00,,,0.00,weatherlink.com 1.10,2013-04-24 03:21:00,
2013-04-23 23:36:00,72.8,62.0,30.13,East,101,7.0,19.0,70,0.00,,,0.00,weatherlink.com 1.10,2013-04-24 03:36:00,
2013-04-23 23:51:00,72.2,62.0,30.13,ESE,108,13.0,18.0,71,0.00,,,0.00,weatherlink.com 1.10,2013-04-24 03:51:00,